User: anonymous   Login
Location: Kott?ru
(16.6209°N, 80.6208°E)
Time: 19:30:47
(UTC+00:00)
Language:

Oscar 19 - Orbit

View from above orbital plane
View from above orbital plane
View from above satellite
View from above satellite

Ground track
Ground track

The orbit data is extracted from the following two-line orbital elements,

1 20442U 90005G   24151.56509679  .00000332  00000-0  13700-3 0  9998
2 20442  98.8817 141.3699 0010712 234.3353 125.6834 14.33540153795258
Epoch (UTC): 30 May 2024 13:33:44
Eccentricity: 0.0010712
inclination: 98.8817°
perigee height: 772 km
apogee height: 787 km
right ascension of ascending node: 141.3699°
argument of perigee: 234.3353°
revolutions per day: 14.33540153
mean anomaly at epoch: 125.6834°
orbit number at epoch: 79525

The dashed part of the orbit path shows where the satellite is in the earth's shadow,  

DLR